This demonstration page uses our WeatherBlox Daily Observations layout. Learn more.

Hourly Observations for August 20, 2017

Temp ( °F °C ) Dew Point ( °F °C ) Humidity (%) Winds ( mph kmh ) Pressure ( in mb ) Visibility ( mi km ) Precip ( " mm )
12:20 am 00:20 Mostly Clear with Nearby Thunderstorms 81 27.2 68 20 65 65 NW 13 20 29.83 1010 10 16.0934 0 0
12:37 am 00:37 Mostly Cloudy with Thunderstorms 79 26.1 63 17.2 58 58 NNW 28 44 29.83 1010 10 16.0934 0 0
12:54 am 00:54 Cloudy with Heavy Thunderstorms 69 20.6 64 17.8 84 84 NW 25 41 29.94 1014 2 3.21868 0.05 1.27
12:58 am 00:58 Cloudy with Heavy Thunderstorms 67 19.4 64 17.8 91 91 N 10 17 29.94 1014 1 1.60934 0.04 1.016
1:00 am 01:00 Cloudy with Heavy Thunderstorms 67 19.4 64 17.8 91 91 NW 25 41 29.94 1014 0.75 1.207005 0.14 3.556
1:02 am 01:02 Cloudy with Heavy Thunderstorms 66 18.9 65 18.3 96 96 WNW 44 70 29.97 1015 0.25 0.402335 0.21 5.334
1:09 am 01:09 Cloudy with Heavy Thunderstorms 65 18.3 63 17.2 93 93 WNW 35 56 29.97 1015 0.25 0.402335 0.59 14.986
1:14 am 01:14 Cloudy with Heavy Thunderstorms 65 18.3 64 17.8 97 97 NW 24 39 29.97 1015 0.5 0.80467 0.87 22.098
1:17 am 01:17 Cloudy with Heavy Thunderstorms 65 18.3 64 17.8 97 97 WNW 23 37 29.97 1015 0.75 1.207005 0.98 24.892
1:24 am 01:24 Cloudy with Heavy Thunderstorms 66 18.9 63 17.2 90 90 WNW 22 35 29.97 1015 2 3.21868 1.13 28.702
1:30 am 01:30 Cloudy with Heavy Thunderstorms 67 19.4 63 17.2 87 87 WNW 18 30 29.97 1015 3 4.82802 1.17 29.718
1:54 am 01:54 Cloudy with Light Thunderstorms 68 20 63 17.2 84 84 SSW 6 9 30 1016 6 9.65604 1.26 32.004
2:02 am 02:02 Cloudy with Nearby Thunderstorms 68 20 63 17.2 84 84 E 8 13 29.94 1014 7 11.26538 0 0.0254
2:28 am 02:28 Mostly Cloudy with Light Thunderstorms 68 20 63 17.2 84 84 ENE 10 17 29.91 1013 10 16.0934 0.02 0.508
2:54 am 02:54 Mostly Cloudy with Light Thunderstorms 68 20 64 17.8 87 87 SSE 16 26 29.91 1013 6 9.65604 0.03 0.762
3:35 am 03:35 Partly Cloudy with Light Rain 68 20 64 17.8 87 87 SSE 9 15 29.85 1011 10 16.0934 0 0.0254
3:46 am 03:46 Mostly Cloudy with Nearby Thunderstorms 68 20 64 17.8 87 87 S 6 9 29.88 1012 8 12.87472 0.03 0.762
3:54 am 03:54 Mostly Cloudy with Light Thunderstorms 68 20 63 17.2 84 84 ESE 7 11 29.87 1012 10 16.0934 0.03 0.762
4:16 am 04:16 Cloudy with Nearby Thunderstorms 68 20 63 17.2 84 84 E 8 13 29.91 1013 10 16.0934 0 0.0254
4:54 am 04:54 Mostly Cloudy with Nearby Thunderstorms 69 20.6 64 17.8 84 84 undefined N/A 29.92 1013 10 16.0934 0 0.0254
5:03 am 05:03 Windy with Storms Likely 71 21.7 62 16.7 73 73 NNW 24 39 29.94 1014 4 6.43736 0 0.0254
5:07 am 05:07 Mostly Cloudy with Heavy Thunderstorms 68 20 63 17.2 84 84 NNW 23 37 29.94 1014 1.75 2.816345 0.12 3.048
5:16 am 05:16 Cloudy with Thunderstorms 66 18.9 63 17.2 90 90 SW 9 15 29.91 1013 3 4.82802 0.24 6.096
5:47 am 05:47 Mostly Cloudy with Thunderstorms 66 18.9 63 17.2 90 90 SW 20 31 29.91 1013 2.5 4.02335 0.48 12.192
5:54 am 05:54 Cloudy with Thunderstorms 67 19.4 62 16.7 84 84 SW 13 20 29.91 1013 4 6.43736 0.53 13.462
6:20 am 06:20 Mostly Cloudy with Nearby Thunderstorms 67 19.4 63 17.2 87 87 SE 5 7 29.85 1011 10 16.0934 0.03 0.762
6:46 am 06:46 Partly Cloudy 66 18.9 63 17.2 90 90 SSW 10 17 29.85 1011 10 16.0934 0.03 0.762
6:54 am 06:54 Partly Cloudy 66 18.9 63 17.2 90 90 SSE 9 15 29.84 1011 10 16.0934 0.03 0.762
7:54 am 07:54 Partly Cloudy with Thunderstorms 68 20 64 17.8 87 87 SSW 7 11 29.87 1011 10 16.0934 0 0
8:15 am 08:15 Mostly Cloudy with Light Rain 69 20.6 64 17.8 84 84 Calm 29.88 1012 10 16.0934 0 0.0254
8:54 am 08:54 Sunny 69 20.6 64 17.8 84 84 S 6 9 29.88 1012 10 16.0934 0 0.0254
9:54 am 09:54 Sunny 74 23.3 66 18.9 76 76 SE 12 19 29.91 1013 10 16.0934 0 0
10:54 am 10:54 Mostly Cloudy 75 23.9 66 18.9 74 74 S 5 7 29.93 1013 10 16.0934 0 0
11:22 am 11:22 Cloudy with Thunderstorms 74 23.3 66 18.9 76 76 ENE 3 6 29.91 1013 10 16.0934 0 0
11:42 am 11:42 Mostly Cloudy with Nearby Thunderstorms 77 25 67 19.4 71 71 ESE 7 11 29.91 1013 10 16.0934 0 0
11:54 am 11:54 Mostly Cloudy 77 25 67 19.4 71 71 ESE 7 11 29.94 1014 10 16.0934 0 0
12:54 pm 12:54 Mostly Sunny 79 26.1 70 21.1 74 74 E 17 28 29.94 1014 10 16.0934 0 0
1:54 pm 13:54 Sunny 81 27.2 69 20.6 67 67 SE 16 26 29.93 1013 10 16.0934 0 0
2:54 pm 14:54 Sunny 83 28.3 70 21.1 65 65 SE 14 22 29.91 1013 10 16.0934 0 0
3:54 pm 15:54 Sunny 84 28.9 70 21.1 63 63 SE 15 24 29.89 1012 10 16.0934 0 0
4:54 pm 16:54 Sunny 85 29.4 71 21.7 63 63 SE 16 26 29.89 1012 10 16.0934 0 0
5:54 pm 17:54 Sunny 86 30 72 22.2 63 63 SE 13 20 29.88 1012 10 16.0934 0 0
6:54 pm 18:54 Sunny 85 29.4 72 22.2 65 65 SE 15 24 29.88 1012 10 16.0934 0 0
7:54 pm 19:54 Sunny 82 27.8 72 22.2 72 72 SE 10 17 29.89 1012 10 16.0934 0 0
8:54 pm 20:54 Clear 81 27.2 71 21.7 72 72 SE 9 15 29.89 1012 10 16.0934 0 0
9:54 pm 21:54 Clear 79 26.1 71 21.7 77 77 SE 8 13 29.91 1013 10 16.0934 0 0
10:54 pm 22:54 Clear 78 25.6 71 21.7 79 79 SE 8 13 29.92 1013 10 16.0934 0 0
11:54 pm 23:54 Clear 78 25.6 72 22.2 82 82 SE 7 11 29.92 1013 10 16.0934 0 0

Powered by AerisWeather